Wahoo, NE

6:27 AM CST on February 10, 2016 (GMT -0600)
Wahoo Municipal

Weather History for KAHQ - May, 2013

Change the Weather History Date:

Saturday, May 25, 2013

  Actual Average Record
Temperature  
Mean Temperature 69 °F -  
Max Temperature 80 °F 77 °F 98 °F (1967)
Min Temperature 58 °F 51 °F 40 °F (1984)
Cooling Degree Days 4    
Growing Degree Days 19 (Base 50)    
Moisture  
Dew Point 61 °F    
Average Humidity 74    
Maximum Humidity 94    
Minimum Humidity 52    
Precipitation  
Precipitation 0.39 in - - ()
Sea Level Pressure  
Sea Level Pressure 30.01 in    
Wind  
Wind Speed 14 mph (SE)    
Max Wind Speed 22 mph    
Max Gust Speed 29 mph    
Visibility 10 miles    
Events Rain    
Averages and records for this station are not official NWS values.
T = Trace of Precipitation, MM = Missing Value Source: NWS Daily Summary

Daily Weather History Graph

Daily Weather History Graph

Search for Another Location

Airport or City:

Trip Planner

Search our weather history database for the weather conditions in past years. The results will help you decide how hot, cold, wet, or windy it might be!

Date:

Astronomy

May. 25, 2013 Rise Set
Actual Time 5:59 AM CDT 8:47 PM CDT
Civil Twilight 5:27 AM CDT 9:20 PM CDT
Nautical Twilight 4:46 AM CDT 10:01 PM CDT
Astronomical Twilight 3:59 AM CDT 10:48 PM CDT
Moon 9:36 PM CDT (5/25) 6:27 AM CDT (5/25)
Length of Visible Light 15h 53m
Length of Day
14h 48m
Full, 100% of the Moon is Illuminated
May 25
Full
May 31
Last Quarter
Jun 8
New
Jun 16
First Quarter
Jun 23
Full

Hourly Weather History & Observations

Time (CDT) Temp. Heat Index Dew Point Humidity Pressure Visibility Wind Dir Wind Speed Gust Speed Precip Events Conditions
12:15 AM 67.1 °F - 49.3 °F 53% 30.08 in 10.0 mi SE 17.3 mph - N/A   Overcast
12:35 AM 67.1 °F - 49.1 °F 52% 30.08 in 10.0 mi SE 16.1 mph 23.0 mph N/A   Overcast
12:55 AM 66.2 °F - 48.9 °F 54% 30.08 in 10.0 mi SE 18.4 mph - N/A   Overcast
1:15 AM 66.2 °F - 48.6 °F 53% 30.06 in 10.0 mi ESE 18.4 mph 25.3 mph N/A   Overcast
1:35 AM 65.7 °F - 48.7 °F 54% 30.05 in 10.0 mi SE 18.4 mph - N/A   Overcast
1:55 AM 65.5 °F - 48.7 °F 55% 30.05 in 10.0 mi SE 17.3 mph 20.7 mph N/A   Overcast
2:15 AM 65.3 °F - 48.2 °F 54% 30.04 in 10.0 mi SE 17.3 mph - N/A   Overcast
2:35 AM 63.9 °F - 49.1 °F 59% 30.04 in 10.0 mi SE 18.4 mph 23.0 mph N/A   Overcast
2:55 AM 61.9 °F - 51.6 °F 69% 30.04 in 10.0 mi SE 16.1 mph 21.9 mph 0.03 in Rain Rain
3:15 AM 62.6 °F - 50.7 °F 65% 30.02 in 10.0 mi SE 15.0 mph 20.7 mph N/A   Overcast
3:35 AM 62.8 °F - 50.0 °F 63% 30.01 in 10.0 mi SE 16.1 mph 20.7 mph N/A   Overcast
3:55 AM 63.5 °F - 49.8 °F 61% 30.02 in 10.0 mi SSE 13.8 mph 24.2 mph N/A   Overcast
4:15 AM 62.6 °F - 50.9 °F 66% 30.06 in 10.0 mi SW 6.9 mph - N/A   Drizzle
4:35 AM 61.0 °F - 53.6 °F 77% 30.07 in 10.0 mi WNW 4.6 mph - 0.01 in Rain Light Rain
4:55 AM 60.4 °F - 53.4 °F 78% 30.05 in 7.0 mi SSE 12.7 mph - 0.06 in Rain Heavy Rain
5:15 AM 59.2 °F - 54.5 °F 84% 30.02 in 10.0 mi SE 11.5 mph - 0.06 in Rain Rain
5:35 AM 58.5 °F - 55.0 °F 88% 30.02 in 7.0 mi SE 10.4 mph - 0.12 in Rain Rain
5:55 AM 58.5 °F - 55.4 °F 90% 30.00 in 7.0 mi ESE 9.2 mph - 0.18 in Rain Rain
6:15 AM 58.5 °F - 55.9 °F 91% 30.07 in 10.0 mi WSW 5.8 mph - 0.03 in Rain Rain
6:35 AM 59.0 °F - 56.5 °F 91% 30.05 in 7.0 mi Calm Calm - 0.07 in Rain Light Rain
6:55 AM 59.0 °F - 57.2 °F 94% 30.04 in 5.0 mi Calm Calm - 0.08 in Rain Light Rain
7:15 AM 59.2 °F - 57.4 °F 94% 30.04 in 5.0 mi SE 4.6 mph - 0.01 in Rain Light Rain
7:35 AM 59.4 °F - 57.6 °F 94% 30.04 in 5.0 mi North 8.1 mph - 0.01 in Rain Light Rain
7:55 AM 59.0 °F - 57.2 °F 94% 30.09 in 7.0 mi Calm Calm - 0.02 in Rain Light Rain
8:15 AM 59.9 °F - 58.1 °F 94% 30.08 in 7.0 mi SSW 3.5 mph - N/A Rain Light Rain
8:35 AM 60.8 °F - 58.5 °F 92% 30.08 in 7.0 mi South 8.1 mph - 0.01 in Rain Light Rain
8:55 AM 61.7 °F - 59.2 °F 91% 30.10 in 10.0 mi SW 8.1 mph - 0.01 in Rain Light Rain
9:15 AM 62.1 °F - 59.9 °F 93% 30.00 in 7.0 mi SSE 21.9 mph 28.8 mph 0.01 in Rain Light Rain
9:35 AM 62.8 °F - 60.8 °F 93% 29.98 in 10.0 mi SSE 16.1 mph - 0.01 in   Scattered Clouds
9:55 AM 64.2 °F - 61.7 °F 91% 29.97 in 10.0 mi NE 12.7 mph - 0.01 in   Clear
10:15 AM 65.5 °F - 62.4 °F 90% 29.97 in 10.0 mi East 9.2 mph - N/A   Clear
10:35 AM 66.7 °F - 63.1 °F 88% 30.00 in 10.0 mi SSE 12.7 mph - N/A   Clear
10:55 AM 68.5 °F - 63.5 °F 84% 30.01 in 10.0 mi SE 6.9 mph - N/A   Clear
11:15 AM 71.1 °F - 64.4 °F 79% 30.01 in 10.0 mi ESE 10.4 mph - N/A   Clear
11:35 AM 71.4 °F - 64.8 °F 79% 30.02 in 10.0 mi ESE 9.2 mph - N/A   Clear
11:55 AM 72.5 °F - 65.5 °F 79% 30.02 in 10.0 mi ESE 12.7 mph 17.3 mph N/A   Clear
12:15 PM 73.4 °F - 65.7 °F 77% 30.02 in 10.0 mi ESE 11.5 mph 24.2 mph N/A   Clear
12:35 PM 73.8 °F - 66.6 °F 78% 30.02 in 10.0 mi ESE 13.8 mph 19.6 mph N/A   Clear
12:55 PM 75.2 °F - 66.0 °F 73% 30.01 in 10.0 mi ESE 15.0 mph 19.6 mph N/A   Scattered Clouds
1:15 PM 75.9 °F - 66.6 °F 73% 30.01 in 10.0 mi SE 13.8 mph 20.7 mph N/A   Clear
1:35 PM 78.1 °F - 63.3 °F 60% 30.01 in 10.0 mi SE 11.5 mph 21.9 mph N/A   Clear
1:55 PM 77.7 °F - 64.4 °F 63% 30.00 in 10.0 mi SE 11.5 mph 16.1 mph N/A   Mostly Cloudy
2:15 PM 77.5 °F - 64.9 °F 65% 30.00 in 10.0 mi SSE 9.2 mph 17.3 mph N/A   Overcast
2:35 PM 76.1 °F - 65.3 °F 69% 30.00 in 10.0 mi SE 13.8 mph - N/A   Overcast
2:55 PM 77.9 °F - 66.2 °F 67% 30.00 in 10.0 mi SE 12.7 mph - N/A   Overcast
3:15 PM 78.8 °F - 67.1 °F 67% 30.00 in 10.0 mi SE 13.8 mph - N/A   Overcast
3:35 PM 79.2 °F - 67.8 °F 68% 29.99 in 10.0 mi SE 13.8 mph - N/A   Mostly Cloudy
3:55 PM 80.1 °F 82.7 °F 68.2 °F 67% 29.98 in 10.0 mi SE 15.0 mph - N/A   Overcast
4:15 PM 79.2 °F - 68.0 °F 69% 29.98 in 10.0 mi ESE 16.1 mph - N/A   Overcast
4:35 PM 78.6 °F - 67.3 °F 68% 29.98 in 10.0 mi SE 16.1 mph 21.9 mph N/A   Overcast
4:55 PM 79.2 °F - 67.3 °F 67% 29.97 in 10.0 mi SE 15.0 mph 23.0 mph N/A   Overcast
5:15 PM 79.3 °F - 67.6 °F 67% 29.97 in 10.0 mi SE 15.0 mph 18.4 mph N/A   Overcast
5:35 PM 80.6 °F 82.9 °F 67.1 °F 63% 29.97 in 10.0 mi SE 17.3 mph - N/A   Mostly Cloudy
5:55 PM 79.3 °F - 66.6 °F 65% 29.97 in 10.0 mi SE 17.3 mph - N/A   Scattered Clouds
6:15 PM 78.6 °F - 66.0 °F 65% 29.96 in 10.0 mi ESE 18.4 mph - N/A   Scattered Clouds
6:35 PM 79.0 °F - 66.4 °F 65% 29.96 in 10.0 mi SE 18.4 mph - N/A   Mostly Cloudy
6:55 PM 77.9 °F - 66.2 °F 67% 29.95 in 10.0 mi ESE 13.8 mph - N/A   Mostly Cloudy
7:15 PM 77.9 °F - 66.2 °F 67% 29.95 in 10.0 mi ESE 13.8 mph - N/A   Overcast
7:35 PM 77.2 °F - 66.6 °F 70% 29.95 in 10.0 mi ESE 11.5 mph 16.1 mph N/A   Mostly Cloudy
7:55 PM 76.6 °F - 66.2 °F 70% 29.94 in 10.0 mi ESE 11.5 mph - N/A   Overcast
8:15 PM 75.7 °F - 66.2 °F 72% 29.94 in 10.0 mi East 11.5 mph - N/A   Overcast
8:35 PM 74.7 °F - 66.4 °F 75% 29.95 in 10.0 mi ESE 8.1 mph - N/A   Overcast
8:55 PM 74.3 °F - 66.2 °F 76% 29.96 in 10.0 mi East 8.1 mph - N/A   Overcast
9:15 PM 74.1 °F - 65.7 °F 75% 29.97 in 10.0 mi ESE 10.4 mph - N/A   Overcast
9:35 PM 73.9 °F - 65.3 °F 74% 29.97 in 10.0 mi ESE 15.0 mph - N/A   Overcast
9:55 PM 73.6 °F - 64.9 °F 74% 29.97 in 10.0 mi SE 18.4 mph 24.2 mph N/A   Overcast
10:15 PM 73.0 °F - 64.8 °F 75% 29.99 in 10.0 mi ESE 13.8 mph - N/A   Mostly Cloudy
10:35 PM 71.4 °F - 64.8 °F 79% 30.00 in 10.0 mi East 11.5 mph - N/A   Mostly Cloudy
10:55 PM 69.4 °F - 63.7 °F 82% 30.00 in 10.0 mi East 18.4 mph 21.9 mph N/A   Overcast
11:15 PM 68.5 °F - 63.5 °F 84% 30.00 in 10.0 mi East 16.1 mph - N/A   Overcast
11:35 PM 67.6 °F - 62.6 °F 84% 29.99 in 10.0 mi East 16.1 mph - N/A   Scattered Clouds
11:55 PM 67.1 °F - 62.2 °F 84% 29.98 in 10.0 mi ESE 15.0 mph - N/A   Scattered Clouds